FENGYUN 1C DEB, 30342

Orbit data source: Space-Track

FENGYUN 1C DEB, 30342 is space debris in SSO originally from a launch on Mon, 10 May 1999 UTC launched from the Taiyaun Space Center, China (TSC). Fengyun 1C debris stems from the Chinese weather satellite Fengyun-1C, which was intentionally destroyed by a Chinese anti-satellite missile in 2007. This event dramatically increased the amount of space debris, with thousands of trackable fragments posing hazards to satellites and human spaceflight. The Fengyun 1C debris cloud has become a focal point in discussions about space sustainability and the need for international regulations to prevent the creation of new debris.

Loading next visibility...
Identifier
30342, 1999-025ABD
Orbit
SSO
Country
Flag of CNCN / PRC
Related business
Manufacturer
Unknown
Mission
Spacecraft
Bus & Motor
Unknown
Mass
Unknown
Launch date (UTC)
1999-05-10 (27 years ago)
Launch vehicle
Unknown
Launch site
Taiyaun Space Center, China (TSC)
Object type
Payload
Rocket body
Debris
Shape & HBR
Unknown shape, 0.1 m
Radar Cross Section
Medium (>0.1 m² and <1 m²)

Expand to show TLE details & history
Last TLE update: 9 hours ago

TLE from 9 hours ago
0 FENGYUN 1C DEB
1 30342U 99025ABD 26170.53427006  .00000397  00000-0  38654-3 0  9998
2 30342 100.1964   9.6923 0168204 357.8961  63.1168 13.80298297974930
Epoch: 2026-06-19T12:49Z
TLE epoch observation values (Epoch: 2026-06-19T12:49:20.933Z)
Latitude
61.13593°
Longitude
-109.34782°
Altitude
919.005 km
Speed
7.425 km/s
True Right ascension
23h 23m 00s
True Declination
60° 59' 37"
Sunlit
Object was in daylight at epoch
Visualization orbit readout
Latitude
Unknown
Longitude
Unknown
Altitude
Unknown
Speed
Unknown
Apparent Right ascension
Unknown
Apparent Declination
Unknown
Sunlit
N/A
Visualization observer readout
Local Sidereal Time
08:43:35
Azimuth
Unknown
Elevation
Unknown
Doppler factor
Unknown
Orbital elements
Apogee altitude
1,083.548 km
Perigee altitude
836.683 km
Semi-major axis
7,338.252 km
Eccentricity
0.01682
Inclination
100.1964°
RAAN
9.6923°
Arg. of periapsis
357.8961°
True anomaly
64.8522°
Mean anomaly
63.1168°
Eccentric anomaly
63.98288°
Mean motion
3.45266 °/min
Orbital period
104.27 mins
BSTAR
0.00038654
Loading maneuver chart data...
Computing Atmospheric mass density...

Documentation

Showing up to 5 results
|